{"data":{"norad_id":53228,"epoch":"2026-09-19T23:11:46.364640Z","epoch_age_seconds":118341,"freshness":"FRESH","line1":"1 53228U 22084AR  26262.96650885  .00001299  00000+0  42556-4 0  9997","line2":"2 53228  97.2834 317.8016 0001219  99.2609 260.8772 15.33437541228616","mean_motion":15.33437541,"eccentricity":0.0001219,"inclination_deg":97.2834,"raan_deg":317.8016,"arg_perigee_deg":99.2609,"mean_anomaly_deg":260.8772,"bstar":4.2556e-5,"rev_number":22861,"period_min":93.906661438648,"perigee_km":464.73111998566,"apogee_km":466.39961462281,"semimajor_km":6843.7023673042,"source":"CELESTRAK","updated_at":"2026-09-20T09:00:40.196077Z"}}